,,Stat6,,Stat2,,Stat8,,Stat9,,Stat10,,Wind1,,Wind1,
time,status,PA1M_AVG,status,PR1M_SUM,status,RH1M_AVG,status,SR1M_AVG,status,TA1M_AVG,status,W1dAve1m,status,W1sAve1m,
2007-06-06, 00:00:00,VALID,917.108,VALID,0,VALID,100,VALID,-0.0169808,VALID,20.0562,VALID,95,VALID,0,
2007-06-06, 00:01:00,VALID,917.101,VALID,0,VALID,100,VALID,0,VALID,20.0725,VALID,95,VALID,0,
2007-06-06, 00:02:00,VALID,917.087,VALID,0,VALID,100,VALID,0,VALID,20.0757,VALID,95,VALID,0,
2007-06-06, 00:03:00,VALID,917.071,VALID,0,VALID,100,VALID,0.0169808,VALID,20.0754,VALID,95,VALID,0,
2007-06-06, 00:04:00,VALID,917.046,VALID,0,VALID,100,VALID,0.0339617,VALID,20.053,VALID,95,VALID,0,
2007-06-06, 00:05:00,VALID,917.04,VALID,0,VALID,100,VALID,0.0169808,VALID,20.0173,VALID,95,VALID,0,
2007-06-06, 00:06:00,VALID,917.037,VALID,0,VALID,100,VALID,0,VALID,19.9714,VALID,95,VALID,0,
2007-06-06, 00:07:00,VALID,917.017,VALID,0,VALID,100,VALID,0,VALID,19.9392,VALID,95,VALID,0,
2007-06-06, 00:08:00,VALID,917.014,VALID,0,VALID,100,VALID,0.0339617,VALID,19.9359,VALID,95,VALID,0,
2007-06-06, 00:09:00,VALID,916.998,VALID,0,VALID,100,VALID,0,VALID,19.9162,VALID,95,VALID,0,
2007-06-06, 00:10:00,VALID,916.987,VALID,0,VALID,100,VALID,0.0169808,VALID,19.9127,VALID,95,VALID,0,
2007-06-06, 00:11:00,VALID,916.963,VALID,0,VALID,100,VALID,0.0169808,VALID,19.9157,VALID,95,VALID,0,
2007-06-06, 00:12:00,VALID,916.951,VALID,0,VALID,100,VALID,0.0339617,VALID,19.9259,VALID,95,VALID,0,
2007-06-06, 00:13:00,VALID,916.941,VALID,0,VALID,100,VALID,0,VALID,19.9459,VALID,95,VALID,0,
2007-06-06, 00:14:00,VALID,916.935,VALID,0,VALID,100,VALID,0.0169808,VALID,19.9556,VALID,95,VALID,0,
2007-06-06, 00:15:00,VALID,916.922,VALID,0,VALID,100,VALID,0,VALID,19.9689,VALID,95,VALID,0,
2007-06-06, 00:16:00,VALID,916.907,VALID,0,VALID,100,VALID,0,VALID,19.9649,VALID,95,VALID,0,
2007-06-06, 00:17:00,VALID,916.917,VALID,0,VALID,100,VALID,0,VALID,19.9686,VALID,95,VALID,0,
2007-06-06, 00:18:00,VALID,916.91,VALID,0,VALID,100,VALID,-0.0169808,VALID,19.9878,VALID,95,VALID,0,
2007-06-06, 00:19:00,VALID,916.898,VALID,0,VALID,100,VALID,-0.0169808,VALID,20.0013,VALID,95,VALID,0,
2007-06-06, 00:20:00,VALID,916.882,VALID,0,VALID,100,VALID,-0.0169808,VALID,20.0108,VALID,95,VALID,0,
2007-06-06, 00:21:00,VALID,916.871,VALID,0,VALID,100,VALID,0,VALID,20.0108,VALID,95,VALID,0,
2007-06-06, 00:22:00,VALID,916.849,VALID,0,VALID,100,VALID,0,VALID,20.014,VALID,95,VALID,0,
2007-06-06, 00:23:00,VALID,916.835,VALID,0,VALID,100,VALID,0,VALID,20.0175,VALID,95,VALID,0,
2007-06-06, 00:24:00,VALID,916.811,VALID,0,VALID,100,VALID,-0.0169808,VALID,20.0375,VALID,95,VALID,0,
2007-06-06, 00:25:00,VALID,916.797,VALID,0,VALID,100,VALID,0,VALID,20.0432,VALID,95,VALID,0,
2007-06-06, 00:26:00,VALID,916.777,VALID,0,VALID,100,VALID,-0.0169808,VALID,20.0662,VALID,95,VALID,0,
2007-06-06, 00:27:00,VALID,916.753,VALID,0,VALID,100,VALID,0,VALID,20.0792,VALID,95,VALID,0,
2007-06-06, 00:28:00,VALID,916.731,VALID,0,VALID,100,VALID,-0.0339617,VALID,20.0757,VALID,95,VALID,0,
2007-06-06, 00:29:00,VALID,916.729,VALID,0,VALID,100,VALID,0,VALID,20.073,VALID,95,VALID,0,
2007-06-06, 00:30:00,VALID,916.705,VALID,0,VALID,100,VALID,0.0169808,VALID,20.0757,VALID,95,VALID,0,
2007-06-06, 00:31:00,VALID,916.7,VALID,0,VALID,100,VALID,-0.0169808,VALID,20.0662,VALID,95,VALID,0,
2007-06-06, 00:32:00,VALID,916.705,VALID,0,VALID,100,VALID,-0.0339617,VALID,20.037,VALID,95,VALID,0,
2007-06-06, 00:33:00,VALID,916.709,VALID,0,VALID,100,VALID,0,VALID,19.9848,VALID,95,VALID,0,
2007-06-06, 00:34:00,VALID,916.686,VALID,0,VALID,100,VALID,-0.0169808,VALID,19.9392,VALID,95,VALID,0,
2007-06-06, 00:35:00,VALID,916.673,VALID,0,VALID,100,VALID,0,VALID,19.9264,VALID,132,VALID,0,
2007-06-06, 00:36:00,VALID,916.675,VALID,0,VALID,100,VALID,0,VALID,19.901,VALID,158,VALID,0.247024,
2007-06-06, 00:37:00,VALID,916.662,VALID,0,VALID,100,VALID,-0.0169808,VALID,19.8713,VALID,147,VALID,0.752287,
2007-06-06, 00:38:00,VALID,916.659,VALID,0,VALID,100,VALID,-0.0169808,VALID,19.8518,VALID,148,VALID,0.768532,
2007-06-06, 00:39:00,VALID,916.668,VALID,0,VALID,100,VALID,-0.0169808,VALID,19.8453,VALID,150,VALID,0.582564,
2007-06-06, 00:40:00,VALID,916.663,VALID,0,VALID,100,VALID,0,VALID,19.8418,VALID,147,VALID,0.348133,
2007-06-06, 00:41:00,VALID,916.665,VALID,0,VALID,100,VALID,-0.0169808,VALID,19.8323,VALID,143,VALID,0.344113,
2007-06-06, 00:42:00,VALID,916.667,VALID,0,VALID,100,VALID,-0.0169808,VALID,19.8423,VALID,142,VALID,0.355058,
2007-06-06, 00:43:00,VALID,916.663,VALID,0,VALID,100,VALID,0.0169808,VALID,19.8583,VALID,142,VALID,0.321766,
2007-06-06, 00:44:00,VALID,916.662,VALID,0,VALID,100,VALID,-0.0169808,VALID,19.8748,VALID,142,VALID,0.388672,
2007-06-06, 00:45:00,VALID,916.652,VALID,0,VALID,100,VALID,-0.0169808,VALID,19.8875,VALID,141,VALID,0.375727,
2007-06-06, 00:46:00,VALID,916.661,VALID,0,VALID,100,VALID,-0.0169808,VALID,19.9199,VALID,124,VALID,0.390625,
2007-06-06, 00:47:00,VALID,916.647,VALID,0,VALID,100,VALID,0,VALID,19.9357,VALID,84,VALID,0.57337,
2007-06-06, 00:48:00,VALID,916.654,VALID,0,VALID,100,VALID,0.0169808,VALID,19.9324,VALID,63,VALID,0.372713,
2007-06-06, 00:49:00,VALID,916.642,VALID,0,VALID,100,VALID,0,VALID,19.9264,VALID,63,VALID,0.286222,
2007-06-06, 00:50:00,VALID,916.632,VALID,0,VALID,100,VALID,0.0169808,VALID,19.9199,VALID,63,VALID,0.128162,
2007-06-06, 00:51:00,VALID,916.624,VALID,0,VALID,100,VALID,-0.0169808,VALID,19.9294,VALID,63,VALID,0,
2007-06-06, 00:52:00,VALID,916.6,VALID,0,VALID,100,VALID,0,VALID,19.91,VALID,63,VALID,0,
2007-06-06, 00:53:00,VALID,916.588,VALID,0,VALID,100,VALID,-0.0169808,VALID,19.9332,VALID,63,VALID,0,
2007-06-06, 00:54:00,VALID,916.549,VALID,0,VALID,100,VALID,0,VALID,19.9262,VALID,63,VALID,0,
2007-06-06, 00:55:00,VALID,916.533,VALID,0,VALID,100,VALID,0,VALID,19.9299,VALID,63,VALID,0,
2007-06-06, 00:56:00,VALID,916.513,VALID,0,VALID,100,VALID,0,VALID,19.9167,VALID,63,VALID,0,
2007-06-06, 00:57:00,VALID,916.494,VALID,0,VALID,100,VALID,0,VALID,19.8843,VALID,63,VALID,0,
2007-06-06, 00:58:00,VALID,916.461,VALID,0,VALID,100,VALID,-0.0509425,VALID,19.8715,VALID,63,VALID,0,
2007-06-06, 00:59:00,VALID,916.448,VALID,0,VALID,100,VALID,-0.0169808,VALID,19.8486,VALID,63,VALID,0,
2007-06-06, 01:00:00,VALID,916.411,VALID,0,VALID,100,VALID,0.0169808,VALID,19.8518,VALID,85,VALID,0.284339,
2007-06-06, 01:01:00,VALID,916.382,VALID,0,VALID,100,VALID,-0.0169808,VALID,19.8553,VALID,137,VALID,0.585938,
2007-06-06, 01:02:00,VALID,916.358,VALID,0,VALID,100,VALID,0,VALID,19.8486,VALID,150,VALID,0.69043,
2007-06-06, 01:03:00,VALID,916.339,VALID,0,VALID,100,VALID,0,VALID,19.8513,VALID,153,VALID,0.586648,
2007-06-06, 01:04:00,VALID,916.31,VALID,0,VALID,100,VALID,0,VALID,19.8583,VALID,153,VALID,0.302344,
2007-06-06, 01:05:00,VALID,916.3,VALID,0,VALID,100,VALID,-0.0169808,VALID,19.8745,VALID,153,VALID,0.193945,
2007-06-06, 01:06:00,VALID,916.287,VALID,0,VALID,100,VALID,0,VALID,19.891,VALID,153,VALID,0,
2007-06-06, 01:07:00,VALID,916.265,VALID,0,VALID,100,VALID,0.0169808,VALID,19.894,VALID,153,VALID,0,
2007-06-06, 01:08:00,VALID,916.254,VALID,0,VALID,100,VALID,0,VALID,19.8975,VALID,153,VALID,0,
2007-06-06, 01:09:00,VALID,916.236,VALID,0,VALID,100,VALID,0,VALID,19.9005,VALID,153,VALID,0,
2007-06-06, 01:10:00,VALID,916.227,VALID,0,VALID,100,VALID,0.0169808,VALID,19.904,VALID,153,VALID,0,
2007-06-06, 01:11:00,VALID,916.226,VALID,0,VALID,100,VALID,0,VALID,19.9102,VALID,153,VALID,0,
2007-06-06, 01:12:00,VALID,916.224,VALID,0,VALID,100,VALID,0,VALID,19.9199,VALID,153,VALID,0,
2007-06-06, 01:13:00,VALID,916.207,VALID,0,VALID,100,VALID,-0.0169808,VALID,19.9199,VALID,153,VALID,0,
2007-06-06, 01:14:00,VALID,916.199,VALID,0,VALID,100,VALID,-0.0169808,VALID,19.9264,VALID,153,VALID,0,
2007-06-06, 01:15:00,VALID,916.189,VALID,0,VALID,100,VALID,-0.0169808,VALID,19.9299,VALID,153,VALID,0,
2007-06-06, 01:16:00,VALID,916.171,VALID,0,VALID,100,VALID,-0.0509425,VALID,19.9297,VALID,154,VALID,0.0416061,
2007-06-06, 01:17:00,VALID,916.176,VALID,0,VALID,100,VALID,0,VALID,19.9456,VALID,154,VALID,0.151101,
2007-06-06, 01:18:00,VALID,916.172,VALID,0,VALID,100,VALID,0,VALID,19.9519,VALID,154,VALID,0,
2007-06-06, 01:19:00,VALID,916.161,VALID,0,VALID,100,VALID,0,VALID,19.9654,VALID,153,VALID,0,
2007-06-06, 01:20:00,VALID,916.178,VALID,0,VALID,100,VALID,0,VALID,19.9719,VALID,154,VALID,0,
2007-06-06, 01:21:00,VALID,916.185,VALID,0,VALID,100,VALID,-0.0169808,VALID,19.9654,VALID,153,VALID,0,
2007-06-06, 01:22:00,VALID,916.172,VALID,0,VALID,100,VALID,-0.0339617,VALID,19.9686,VALID,153,VALID,0,
2007-06-06, 01:23:00,VALID,916.177,VALID,0,VALID,100,VALID,0,VALID,19.9686,VALID,153,VALID,0,
2007-06-06, 01:24:00,VALID,916.169,VALID,0,VALID,100,VALID,0.0169808,VALID,19.9749,VALID,153,VALID,0,
2007-06-06, 01:25:00,VALID,916.165,VALID,0,VALID,100,VALID,-0.0169808,VALID,19.9684,VALID,153,VALID,0,
2007-06-06, 01:26:00,VALID,916.151,VALID,0,VALID,100,VALID,-0.0169808,VALID,19.9621,VALID,153,VALID,0,
2007-06-06, 01:27:00,VALID,916.153,VALID,0,VALID,100,VALID,0,VALID,19.9589,VALID,153,VALID,0,
2007-06-06, 01:28:00,VALID,916.166,VALID,0,VALID,100,VALID,0,VALID,19.9619,VALID,153,VALID,0,
2007-06-06, 01:29:00,VALID,916.164,VALID,0,VALID,100,VALID,-0.0169808,VALID,19.9524,VALID,153,VALID,0,
2007-06-06, 01:30:00,VALID,916.159,VALID,0,VALID,100,VALID,0,VALID,19.9654,VALID,153,VALID,0,
2007-06-06, 01:31:00,VALID,916.167,VALID,0,VALID,100,VALID,0,VALID,19.9649,VALID,153,VALID,0,
2007-06-06, 01:32:00,VALID,916.148,VALID,0,VALID,100,VALID,0,VALID,19.9684,VALID,153,VALID,0,
2007-06-06, 01:33:00,VALID,916.154,VALID,0,VALID,100,VALID,0.0169808,VALID,19.9646,VALID,153,VALID,0,
2007-06-06, 01:34:00,VALID,916.145,VALID,0,VALID,100,VALID,0,VALID,19.9519,VALID,153,VALID,0,
2007-06-06, 01:35:00,VALID,916.14,VALID,0,VALID,100,VALID,0,VALID,19.9297,VALID,153,VALID,0,
2007-06-06, 01:36:00,VALID,916.141,VALID,0,VALID,100,VALID,0,VALID,19.9197,VALID,153,VALID,0,
2007-06-06, 01:37:00,VALID,916.12,VALID,0,VALID,100,VALID,-0.0339617,VALID,19.9135,VALID,153,VALID,0,
2007-06-06, 01:38:00,VALID,916.122,VALID,0,VALID,100,VALID,0,VALID,19.9137,VALID,153,VALID,0,
2007-06-06, 01:39:00,VALID,916.106,VALID,0,VALID,100,VALID,0.0169808,VALID,19.9132,VALID,153,VALID,0,
2007-06-06, 01:40:00,VALID,916.095,VALID,0,VALID,100,VALID,0,VALID,19.9129,VALID,153,VALID,0,
2007-06-06, 01:41:00,VALID,916.089,VALID,0,VALID,100,VALID,0,VALID,19.9297,VALID,141,VALID,0.0887957,
2007-06-06, 01:42:00,VALID,916.067,VALID,0,VALID,100,VALID,0.0169808,VALID,19.9259,VALID,58,VALID,0.546094,
2007-06-06, 01:43:00,VALID,916.059,VALID,0,VALID,100,VALID,0,VALID,19.8388,VALID,75,VALID,0.709263,
2007-06-06, 01:44:00,VALID,916.049,VALID,0,VALID,100,VALID,0.0169808,VALID,19.7637,VALID,85,VALID,0.625744,
2007-06-06, 01:45:00,VALID,916.038,VALID,0,VALID,100,VALID,0.0169808,VALID,19.738,VALID,100,VALID,0.625381,
2007-06-06, 01:46:00,VALID,916.042,VALID,0,VALID,100,VALID,0,VALID,19.7118,VALID,114,VALID,0.751334,
2007-06-06, 01:47:00,VALID,916.022,VALID,0,VALID,100,VALID,0,VALID,19.709,VALID,111,VALID,0.942587,
2007-06-06, 01:48:00,VALID,916.026,VALID,0,VALID,100,VALID,0,VALID,19.7185,VALID,111,VALID,0.85245,
2007-06-06, 01:49:00,VALID,916.007,VALID,0,VALID,100,VALID,0.0169808,VALID,19.7115,VALID,112,VALID,0.68936,
2007-06-06, 01:50:00,VALID,916.004,VALID,0,VALID,100,VALID,0,VALID,19.7025,VALID,102,VALID,0.562682,
2007-06-06, 01:51:00,VALID,916.011,VALID,0,VALID,100,VALID,0,VALID,19.6956,VALID,90,VALID,0.35119,
2007-06-06, 01:52:00,VALID,916.009,VALID,0,VALID,100,VALID,0.0169808,VALID,19.6923,VALID,119,VALID,0.416903,
2007-06-06, 01:53:00,VALID,916.013,VALID,0,VALID,100,VALID,0.0339617,VALID,19.6991,VALID,119,VALID,0.0908918,
2007-06-06, 01:54:00,VALID,916.008,VALID,0,VALID,100,VALID,0,VALID,19.6861,VALID,119,VALID,0.251453,
2007-06-06, 01:55:00,VALID,915.999,VALID,0,VALID,100,VALID,0.0339617,VALID,19.6956,VALID,113,VALID,0.387747,
2007-06-06, 01:56:00,VALID,916.009,VALID,0,VALID,100,VALID,0,VALID,19.6926,VALID,97,VALID,0.561592,
2007-06-06, 01:57:00,VALID,916.004,VALID,0,VALID,100,VALID,0.0509425,VALID,19.6923,VALID,97,VALID,0.405342,
2007-06-06, 01:58:00,VALID,916.015,VALID,0,VALID,100,VALID,0,VALID,19.6926,VALID,97,VALID,0.223772,
2007-06-06, 01:59:00,VALID,916.026,VALID,0,VALID,100,VALID,0,VALID,19.6728,VALID,97,VALID,0.0141369,
2007-06-06, 02:00:00,VALID,916.02,VALID,0,VALID,100,VALID,0.0169808,VALID,19.6469,VALID,97,VALID,0.00514482,
2007-06-06, 02:01:00,VALID,916.018,VALID,0,VALID,100,VALID,0.0169808,VALID,19.6145,VALID,97,VALID,0.0208939,
2007-06-06, 02:02:00,VALID,916.026,VALID,0,VALID,100,VALID,-0.0169808,VALID,19.6117,VALID,97,VALID,0.000200321,
2007-06-06, 02:03:00,VALID,916.033,VALID,0,VALID,100,VALID,-0.0339617,VALID,19.6214,VALID,97,VALID,0.000762195,
2007-06-06, 02:04:00,VALID,916.03,VALID,0,VALID,100,VALID,0,VALID,19.6309,VALID,97,VALID,0,
2007-06-06, 02:05:00,VALID,916.028,VALID,0,VALID,100,VALID,0,VALID,19.6377,VALID,97,VALID,0,
2007-06-06, 02:06:00,VALID,916.024,VALID,0,VALID,100,VALID,-0.0169808,VALID,19.6409,VALID,97,VALID,0,
2007-06-06, 02:07:00,VALID,916.033,VALID,0,VALID,100,VALID,0,VALID,19.6247,VALID,97,VALID,0,
2007-06-06, 02:08:00,VALID,916.044,VALID,0,VALID,100,VALID,0,VALID,19.598,VALID,97,VALID,0,
2007-06-06, 02:09:00,VALID,916.046,VALID,0,VALID,100,VALID,0,VALID,19.5985,VALID,97,VALID,0,
2007-06-06, 02:10:00,VALID,916.047,VALID,0,VALID,100,VALID,0.0169808,VALID,19.5788,VALID,97,VALID,0,
2007-06-06, 02:11:00,VALID,916.042,VALID,0,VALID,100,VALID,0,VALID,19.5723,VALID,97,VALID,0,
2007-06-06, 02:12:00,VALID,916.05,VALID,0,VALID,100,VALID,0.0169808,VALID,19.5855,VALID,97,VALID,0,
2007-06-06, 02:13:00,VALID,916.039,VALID,0,VALID,100,VALID,0.0849042,VALID,19.598,VALID,97,VALID,0,
2007-06-06, 02:14:00,VALID,916.032,VALID,0,VALID,100,VALID,-0.0679233,VALID,19.609,VALID,97,VALID,0,
2007-06-06, 02:15:00,VALID,916.021,VALID,0,VALID,100,VALID,-0.101885,VALID,19.6259,VALID,97,VALID,0,
2007-06-06, 02:16:00,VALID,916.027,VALID,0,VALID,100,VALID,-0.101885,VALID,19.6357,VALID,97,VALID,0,
2007-06-06, 02:17:00,VALID,916.022,VALID,0,VALID,100,VALID,-0.101885,VALID,19.6486,VALID,97,VALID,0,
2007-06-06, 02:18:00,VALID,916.013,VALID,0,VALID,100,VALID,-0.0679233,VALID,19.6551,VALID,97,VALID,0,
2007-06-06, 02:19:00,VALID,916.023,VALID,0,VALID,100,VALID,-0.0849042,VALID,19.6808,VALID,97,VALID,0,
2007-06-06, 02:20:00,VALID,916.022,VALID,0,VALID,100,VALID,-0.0849042,VALID,19.6903,VALID,97,VALID,0,
2007-06-06, 02:21:00,VALID,916.042,VALID,0,VALID,100,VALID,-0.101885,VALID,19.6903,VALID,97,VALID,0,
2007-06-06, 02:22:00,VALID,916.054,VALID,0,VALID,100,VALID,-0.0849042,VALID,19.6806,VALID,97,VALID,0,
2007-06-06, 02:23:00,VALID,916.068,VALID,0,VALID,100,VALID,-0.0849042,VALID,19.6866,VALID,97,VALID,0,
2007-06-06, 02:24:00,VALID,916.085,VALID,0,VALID,100,VALID,-0.0849042,VALID,19.707,VALID,97,VALID,0,
2007-06-06, 02:25:00,VALID,916.108,VALID,0,VALID,100,VALID,-0.135847,VALID,19.6808,VALID,97,VALID,0,
2007-06-06, 02:26:00,VALID,916.117,VALID,0,VALID,100,VALID,-0.101885,VALID,19.6741,VALID,97,VALID,0,
2007-06-06, 02:27:00,VALID,916.115,VALID,0,VALID,100,VALID,-0.0849042,VALID,19.6811,VALID,97,VALID,0,
2007-06-06, 02:28:00,VALID,916.129,VALID,0,VALID,100,VALID,-0.0509425,VALID,19.6738,VALID,97,VALID,0,
2007-06-06, 02:29:00,VALID,916.133,VALID,0,VALID,100,VALID,-0.0679233,VALID,19.6868,VALID,97,VALID,0,
2007-06-06, 02:30:00,VALID,916.129,VALID,0,VALID,100,VALID,-0.0849042,VALID,19.7058,VALID,97,VALID,0,
2007-06-06, 02:31:00,VALID,916.131,VALID,0,VALID,100,VALID,-0.0679233,VALID,19.742,VALID,97,VALID,0.175509,
2007-06-06, 02:32:00,VALID,916.125,VALID,0,VALID,100,VALID,-0.101885,VALID,19.7422,VALID,97,VALID,0.342685,
2007-06-06, 02:33:00,VALID,916.11,VALID,0,VALID,100,VALID,-0.101885,VALID,19.7525,VALID,97,VALID,0.253452,
2007-06-06, 02:34:00,VALID,916.117,VALID,0,VALID,100,VALID,-0.0849042,VALID,19.7482,VALID,97,VALID,0.423874,
2007-06-06, 02:35:00,VALID,916.117,VALID,0,VALID,100,VALID,-0.101885,VALID,19.7617,VALID,97,VALID,0.451736,
2007-06-06, 02:36:00,VALID,916.113,VALID,0,VALID,100,VALID,-0.101885,VALID,19.7847,VALID,97,VALID,0.430432,
2007-06-06, 02:37:00,VALID,916.097,VALID,0,VALID,100,VALID,-0.0849042,VALID,19.7874,VALID,97,VALID,0.404797,
2007-06-06, 02:38:00,VALID,916.092,VALID,0,VALID,100,VALID,-0.0679233,VALID,19.8036,VALID,97,VALID,0.105945,
2007-06-06, 02:39:00,VALID,916.089,VALID,0,VALID,100,VALID,-0.0679233,VALID,19.7969,VALID,97,VALID,0.325462,
2007-06-06, 02:40:00,VALID,916.08,VALID,0,VALID,100,VALID,-0.0849042,VALID,19.7812,VALID,97,VALID,0.508984,
2007-06-06, 02:41:00,VALID,916.075,VALID,0,VALID,100,VALID,-0.0679233,VALID,19.7712,VALID,97,VALID,0.519622,
2007-06-06, 02:42:00,VALID,916.077,VALID,0,VALID,100,VALID,-0.101885,VALID,19.7779,VALID,97,VALID,0.475654,
2007-06-06, 02:43:00,VALID,916.075,VALID,0,VALID,100,VALID,-0.101885,VALID,19.7747,VALID,97,VALID,0.464939,
2007-06-06, 02:44:00,VALID,916.083,VALID,0,VALID,100,VALID,-0.0849042,VALID,19.7879,VALID,97,VALID,0.371652,
2007-06-06, 02:45:00,VALID,916.086,VALID,0,VALID,100,VALID,-0.101885,VALID,19.7909,VALID,97,VALID,0.266927,
2007-06-06, 02:46:00,VALID,916.093,VALID,0,VALID,100,VALID,-0.0679233,VALID,19.8201,VALID,97,VALID,0.186738,
2007-06-06, 02:47:00,VALID,916.105,VALID,0,VALID,100,VALID,-0.0849042,VALID,19.8296,VALID,90,VALID,0,
2007-06-06, 02:48:00,VALID,916.11,VALID,0,VALID,100,VALID,-0.0849042,VALID,19.8206,VALID,84,VALID,0,
2007-06-06, 02:49:00,VALID,916.094,VALID,0,VALID,100,VALID,-0.0849042,VALID,19.8209,VALID,70,VALID,0.497275,
2007-06-06, 02:50:00,VALID,916.093,VALID,0,VALID,100,VALID,-0.118866,VALID,19.8199,VALID,69,VALID,0.711115,
2007-06-06, 02:51:00,VALID,916.081,VALID,0,VALID,100,VALID,-0.101885,VALID,19.8006,VALID,69,VALID,0.707849,
2007-06-06, 02:52:00,VALID,916.087,VALID,0,VALID,100,VALID,-0.101885,VALID,19.8041,VALID,69,VALID,0.669207,
2007-06-06, 02:53:00,VALID,916.081,VALID,0,VALID,100,VALID,-0.0849042,VALID,19.7909,VALID,69,VALID,0.542578,
2007-06-06, 02:54:00,VALID,916.083,VALID,0,VALID,100,VALID,-0.118866,VALID,19.7909,VALID,69,VALID,0.460938,
2007-06-06, 02:55:00,VALID,916.079,VALID,0,VALID,100,VALID,-0.0849042,VALID,19.7772,VALID,69,VALID,0.440234,
2007-06-06, 02:56:00,VALID,916.085,VALID,0,VALID,100,VALID,-0.101885,VALID,19.7812,VALID,69,VALID,0.413132,
2007-06-06, 02:57:00,VALID,916.082,VALID,0,VALID,100,VALID,-0.0849042,VALID,19.7809,VALID,69,VALID,0.304888,
2007-06-06, 02:58:00,VALID,916.106,VALID,0,VALID,100,VALID,-0.101885,VALID,19.7774,VALID,69,VALID,0.35026,
2007-06-06, 02:59:00,VALID,916.112,VALID,0,VALID,100,VALID,-0.101885,VALID,19.7749,VALID,69,VALID,0.261328,
2007-06-06, 03:00:00,VALID,916.118,VALID,0,VALID,100,VALID,-0.101885,VALID,19.7684,VALID,69,VALID,0.0868459,
2007-06-06, 03:01:00,VALID,916.128,VALID,0,VALID,100,VALID,-0.101885,VALID,19.7752,VALID,69,VALID,0,
2007-06-06, 03:02:00,VALID,916.127,VALID,0,VALID,100,VALID,-0.0849042,VALID,19.7652,VALID,69,VALID,0,
2007-06-06, 03:03:00,VALID,916.128,VALID,0,VALID,100,VALID,-0.101885,VALID,19.7682,VALID,69,VALID,0,
2007-06-06, 03:04:00,VALID,916.118,VALID,0,VALID,100,VALID,-0.101885,VALID,19.7712,VALID,69,VALID,0,
2007-06-06, 03:05:00,VALID,916.112,VALID,0,VALID,100,VALID,-0.101885,VALID,19.7946,VALID,69,VALID,0.0964753,
2007-06-06, 03:06:00,VALID,916.092,VALID,0,VALID,100,VALID,-0.0849042,VALID,19.7944,VALID,69,VALID,0.115473,
2007-06-06, 03:07:00,VALID,916.091,VALID,0,VALID,100,VALID,-0.0849042,VALID,19.8109,VALID,69,VALID,0,
2007-06-06, 03:08:00,VALID,916.093,VALID,0,VALID,100,VALID,-0.0849042,VALID,19.8066,VALID,69,VALID,0.000372024,
2007-06-06, 03:09:00,VALID,916.078,VALID,0,VALID,100,VALID,-0.101885,VALID,19.8069,VALID,69,VALID,0.132631,
2007-06-06, 03:10:00,VALID,916.078,VALID,0,VALID,100,VALID,-0.0849042,VALID,19.8206,VALID,69,VALID,0.285247,
2007-06-06, 03:11:00,VALID,916.066,VALID,0,VALID,100,VALID,-0.101885,VALID,19.8204,VALID,69,VALID,0.262718,
2007-06-06, 03:12:00,VALID,916.048,VALID,0,VALID,100,VALID,-0.0849042,VALID,19.8166,VALID,69,VALID,0.263081,
2007-06-06, 03:13:00,VALID,916.027,VALID,0,VALID,100,VALID,-0.101885,VALID,19.8266,VALID,66,VALID,0.300509,
2007-06-06, 03:14:00,VALID,915.988,VALID,0,VALID,100,VALID,-0.0849042,VALID,19.8366,VALID,354,VALID,0.337391,
2007-06-06, 03:15:00,VALID,915.954,VALID,0,VALID,100,VALID,-0.0679233,VALID,19.8396,VALID,354,VALID,0.145461,
2007-06-06, 03:16:00,VALID,915.926,VALID,0,VALID,100,VALID,-0.0849042,VALID,19.8358,VALID,354,VALID,0.136914,
2007-06-06, 03:17:00,VALID,915.91,VALID,0,VALID,100,VALID,-0.0849042,VALID,19.8268,VALID,354,VALID,0.152902,
2007-06-06, 03:18:00,VALID,915.906,VALID,0,VALID,100,VALID,-0.0849042,VALID,19.8066,VALID,354,VALID,0.186899,
2007-06-06, 03:19:00,VALID,915.892,VALID,0,VALID,100,VALID,-0.101885,VALID,19.8106,VALID,354,VALID,0,
2007-06-06, 03:20:00,VALID,915.889,VALID,0,VALID,100,VALID,-0.118866,VALID,19.8169,VALID,354,VALID,0,
2007-06-06, 03:21:00,VALID,915.864,VALID,0,VALID,100,VALID,-0.118866,VALID,19.8039,VALID,354,VALID,0,
2007-06-06, 03:22:00,VALID,915.869,VALID,0,VALID,100,VALID,-0.101885,VALID,19.8004,VALID,354,VALID,0,
2007-06-06, 03:23:00,VALID,915.863,VALID,0,VALID,100,VALID,-0.101885,VALID,19.8036,VALID,354,VALID,0,
2007-06-06, 03:24:00,VALID,915.869,VALID,0,VALID,100,VALID,-0.0679233,VALID,19.7936,VALID,354,VALID,0,
2007-06-06, 03:25:00,VALID,915.863,VALID,0,VALID,100,VALID,-0.0849042,VALID,19.7902,VALID,354,VALID,0,
2007-06-06, 03:26:00,VALID,915.869,VALID,0,VALID,100,VALID,-0.0509425,VALID,19.7936,VALID,354,VALID,0,
2007-06-06, 03:27:00,VALID,915.863,VALID,0,VALID,100,VALID,-0.0509425,VALID,19.7936,VALID,354,VALID,0,
2007-06-06, 03:28:00,VALID,915.876,VALID,0,VALID,100,VALID,-0.0679233,VALID,19.8006,VALID,355,VALID,0.293229,
2007-06-06, 03:29:00,VALID,915.887,VALID,0,VALID,100,VALID,0.0169808,VALID,19.7931,VALID,356,VALID,0.264482,
2007-06-06, 03:30:00,VALID,915.888,VALID,0,VALID,100,VALID,0,VALID,19.7767,VALID,356,VALID,0.0788872,
2007-06-06, 03:31:00,VALID,915.89,VALID,0,VALID,100,VALID,0.0169808,VALID,19.7605,VALID,356,VALID,0,
2007-06-06, 03:32:00,VALID,915.883,VALID,0,VALID,100,VALID,0.0509425,VALID,19.734,VALID,356,VALID,0,
2007-06-06, 03:33:00,VALID,915.883,VALID,0,VALID,100,VALID,0,VALID,19.7215,VALID,356,VALID,0,
2007-06-06, 03:34:00,VALID,915.871,VALID,0,VALID,100,VALID,-0.0339617,VALID,19.7085,VALID,356,VALID,0.0310595,
2007-06-06, 03:35:00,VALID,915.865,VALID,0,VALID,100,VALID,0,VALID,19.7053,VALID,356,VALID,0,
2007-06-06, 03:36:00,VALID,915.854,VALID,0,VALID,100,VALID,0.0169808,VALID,19.7053,VALID,356,VALID,0.000887784,
2007-06-06, 03:37:00,VALID,915.826,VALID,0,VALID,100,VALID,0,VALID,19.709,VALID,356,VALID,0,
2007-06-06, 03:38:00,VALID,915.829,VALID,0,VALID,100,VALID,0.0169808,VALID,19.7055,VALID,356,VALID,0,
2007-06-06, 03:39:00,VALID,915.825,VALID,0,VALID,100,VALID,-0.0169808,VALID,19.7025,VALID,356,VALID,0,
2007-06-06, 03:40:00,VALID,915.811,VALID,0,VALID,100,VALID,0.0169808,VALID,19.6926,VALID,356,VALID,0.0417878,
2007-06-06, 03:41:00,VALID,915.821,VALID,0,VALID,100,VALID,0,VALID,19.6666,VALID,356,VALID,0.0177083,
2007-06-06, 03:42:00,VALID,915.829,VALID,0,VALID,100,VALID,0,VALID,19.6374,VALID,356,VALID,0.05625,
2007-06-06, 03:43:00,VALID,915.842,VALID,0,VALID,100,VALID,0,VALID,19.5977,VALID,356,VALID,0.196801,
2007-06-06, 03:44:00,VALID,915.868,VALID,0,VALID,100,VALID,0.0169808,VALID,19.5718,VALID,352,VALID,0.396094,
2007-06-06, 03:45:00,VALID,915.895,VALID,0,VALID,100,VALID,0,VALID,19.5528,VALID,349,VALID,0.482922,
2007-06-06, 03:46:00,VALID,915.913,VALID,0,VALID,100,VALID,0,VALID,19.5498,VALID,349,VALID,0.658381,
2007-06-06, 03:47:00,VALID,915.937,VALID,0,VALID,100,VALID,0.0169808,VALID,19.5493,VALID,38,VALID,0.479421,
2007-06-06, 03:48:00,VALID,915.949,VALID,0,VALID,100,VALID,0,VALID,19.5593,VALID,103,VALID,0.616655,
2007-06-06, 03:49:00,VALID,915.959,VALID,0,VALID,100,VALID,0,VALID,19.5368,VALID,104,VALID,0.775073,
2007-06-06, 03:50:00,VALID,915.986,VALID,0,VALID,100,VALID,0,VALID,19.5041,VALID,104,VALID,0.850446,